Location: Elmsmere
(40.9284°N, 73.8207°W)
Time: 09:42:20
(UTC+00:00)

Helios 1A Rocket - Pass Details

Date: 29 October 2020
Orbit: 562 x 587 km, 98.3° (Epoch: 23 November)

Event Time Altitude Azimuth Distance (km) Brightness Sun altitude
Rises 23:35:31 0° 174° (S) 2,793 6.4 -19.6°
Reaches altitude 10° 23:37:41 10° 178° (S) 1,895 5.5 -20.0°
Maximum altitude 23:41:45 60° 258° (WSW) 664 3.4 -20.8°
Drops below altitude 10° 23:45:49 10° 339° (NNW) 1,896 5.8 -21.6°
Sets 23:47:59 0° 344° (NNW) 2,795 6.6 -22.0°
